Location: McDonald Observatory
(30.6717°N, 104.0221°W)
Time: 06:58:25
(UTC-05:00)

Daily predictions for brighter satellites

Satellite Brightness Start Highest point End
(mag) Time Altitude Azimuth Time Altitude Azimuth Time Altitude Azimuth
Cosmos 2278 3.8 20:45:50 10° S 20:51:20 54° ESE 20:56:51 10° NNE
Helios 1B rocket 2.8 20:48:29 10° N 20:52:35 71° WNW 20:56:39 10° SSW
HJ-1C 3.3 20:49:26 10° SSE 20:52:40 63° ENE 20:55:55 10° N
Meteor 2-4 Rocket 3.9 20:51:13 10° N 20:57:02 59° E 21:02:51 10° SSE
Cosmos 1633 3.4 20:54:36 10° SSW 20:58:13 57° W 21:01:48 10° N
Cosmos 1821 Rocket 3.9 20:54:23 10° S 21:00:29 75° E 21:06:34 10° N
H-2A R/B 4.0 20:57:52 10° SE 21:00:57 23° ENE 21:04:05 10° NNE
METEOR-M 4.1 20:55:43 10° SSE 21:01:02 79° ENE 21:06:24 10° N
Cosmos 1315 Rocket 4.2 20:57:15 10° SSW 21:01:04 44° W 21:04:56 10° N
Okean 2 4.0 20:58:05 10° NNE 21:01:57 36° E 21:05:46 10° SSE
Cosmos 1605 Rocket 4.4 20:57:38 10° SSE 21:03:34 43° E 21:09:26 10° NNE
Cosmos 2369 3.7 20:59:27 10° S 21:05:02 65° ESE 21:10:40 10° NNE
Helios 1A 3.1 21:04:09 10° S 21:08:17 80° WSW 21:12:29 10° NNW
Cosmos 1777 Rocket 4.1 21:04:05 10° N 21:09:17 61° ENE 21:14:29 10° SSE
Cosmos 1980 Rocket 3.7 21:06:44 10° SE 21:09:23 13° E 21:12:01 10° ENE
CZ-2D R/B 3.6 21:15:55 10° SSE 21:19:35 45° ENE 21:23:18 10° N
Meteor 1-23 Rocket 4.2 21:13:56 10° N 21:19:37 88° E 21:25:21 10° S
Cosmos 2208 Rocket 4.4 21:17:18 10° SSW 21:22:33 70° WNW 21:27:55 10° N
Hubble Space Telescope 1.5 21:22:51 10° W 21:26:47 42° SSW 21:29:06 21° SE
NOSS 3-4 (A) 4.0 21:19:55 10° NNW 21:26:56 58° ENE 21:32:51 17° SE
FengYun 1-2 T 4.4 21:21:24 10° S 21:27:03 83° WSW 21:32:41 10° NNW
NOSS 3-4 (C) 4.0 21:20:02 10° NNW 21:27:04 58° ENE 21:32:55 17° SE
Cosmos 1461 3.8 21:23:51 10° N 21:27:23 29° ENE 21:28:48 23° E
Spot 2 Rocket 4.4 21:22:44 10° S 21:27:39 50° W 21:32:36 10° NNW
Cosmos 1025 Rocket 4.1 21:23:38 10° NNW 21:27:48 46° W 21:31:55 10° SSW
OAO 2 Rocket 3.7 21:23:40 10° W 21:28:37 62° N 21:33:01 14° ENE
Cosmos 1455 Rocket 3.2 21:25:41 10° S 21:30:00 73° W 21:34:20 10° N
Cosmos 1892 Rocket 3.8 21:26:35 10° N 21:31:04 76° W 21:35:31 10° S
Cosmos 1626 Rocket 4.3 21:27:26 10° NNE 21:31:22 31° E 21:32:54 25° ESE
Meteor 2-15 4.4 21:26:16 10° N 21:32:21 85° E 21:38:24 10° S
CZ-4B DEB 3.2 21:29:50 10° S 21:33:04 64° W 21:36:20 10° NNW
FENGYUN 3A 3.6 21:28:56 10° SSE 21:34:16 78° ENE 21:39:38 10° N
Resurs 1-3 4.5 21:30:39 10° S 21:34:53 50° W 21:39:10 10° NNW
Cosmos 1500 3.8 21:37:23 31° ESE 21:37:45 32° E 21:41:08 10° NNE
Meteor 2-15 Rocket 4.3 21:32:02 10° N 21:38:07 80° E 21:44:10 10° S
Envisat 4.3 21:37:26 21° E 21:38:17 22° ENE 21:42:04 10° NNE
Cosmos 1656 3.6 21:33:01 10° S 21:38:38 70° ESE 21:44:11 10° NNE
Cosmos 2123 Rocket 3.9 21:32:46 10° N 21:38:57 78° E 21:45:08 10° S
Cosmos 1602 Rocket 4.0 21:36:05 10° N 21:40:17 41° E 21:41:50 30° SE
Cosmos 1346 Rocket 2.8 21:38:13 10° N 21:42:11 83° W 21:45:42 13° S
Cosmos 2227 Rocket 2.3 21:37:26 10° NNW 21:43:01 59° ENE 21:46:15 25° SE
ALOS 2.5 21:41:42 10° S 21:46:20 70° WSW 21:51:01 10° NNW
Cosmos 1459 Rocket 4.5 21:43:34 23° SE 21:46:20 35° E 21:51:45 10° NNE
Iridium 4 Rocket 3.3 21:47:32 10° N 21:52:22 55° E 21:54:06 34° SSE
Resurs 01 Rocket 4.1 21:51:18 10° SSW 21:54:41 21° W 21:58:05 10° NW
USA 186 2.2 21:53:23 28° S 21:54:55 61° W 21:58:01 10° NNW
BREEZE-M DEB (TANK) 4.3 21:48:50 10° WNW 21:55:38 29° WSW 21:57:57 15° S
Orbus 7S 3.4 21:51:27 10° W 21:56:42 49° S 21:57:01 46° S
Cosmos 2082 3.6 21:51:42 10° NNW 21:57:19 75° ENE 22:00:00 32° SSE
Cosmos 220 Rocket 4.2 21:53:21 10° N 21:57:24 44° ENE 21:57:34 44° E
Cosmos 2297 Rocket 2.3 21:52:55 10° N 21:58:29 56° ENE 22:00:22 38° SE
Cosmos 1153 Rocket 4.4 21:55:33 10° S 22:01:47 88° W 22:07:57 10° N
ATLAS 2A CENTAUR R/B 3.2 22:02:47 10° WSW 22:03:46 11° SW 22:03:49 11° SW
Cosmos 1515 3.9 22:02:34 10° N 22:05:50 53° NE 22:05:50 53° NE
Delta 2 Rocket 3.9 22:00:52 10° WNW 22:06:30 83° NNE 22:07:51 51° E
ERS-1 Rocket 3.0 22:07:57 50° ESE 22:08:55 60° ENE 22:13:52 10° N
DELTA 2 R/B (1) 4.4 22:04:34 10° NW 22:09:50 41° NNE 22:11:47 31° ENE
Centaur AC-125 3.9 21:45:27 10° W 22:11:08 69° S 22:13:08 43° ESE
Cosmos 1743 4.5 22:15:07 22° NNE 22:15:07 22° NNE 22:16:42 10° NNE
OTV 4 2.2 22:10:47 10° NW 22:12:40 30° NNW 22:12:40 30° NNW
Cosmos 1802 Rocket 4.1 22:14:20 41° SE 22:16:16 57° E 22:22:32 10° NNE
Cosmos 1447 Rocket 4.5 22:12:36 10° N 22:18:58 87° W 22:22:25 29° S
Cosmos 1898 Rocket 3.5 22:18:36 10° N 22:23:45 60° ENE 22:23:45 60° ENE
Lacrosse 5 3.3 22:23:36 10° NNW 22:27:19 24° NE 22:27:19 24° NE
SPOT 5 3.8 22:30:12 36° NE 22:30:12 36° NE 22:33:36 10° N
Cosmos 1697 Rocket 3.3 22:24:38 10° SW 22:30:09 55° WNW 22:35:41 10° N
Cosmos 2016 Rocket 3.8 22:31:45 63° E 22:31:48 63° E 22:37:53 10° NNE
Cosmos 1066 Rocket 4.1 22:26:13 10° N 22:31:57 86° E 22:32:47 67° SSE
Lacrosse 5 rocket 3.0 22:39:28 10° NW 22:41:15 27° NW 22:41:15 27° NW
Cosmos 2173 Rocket 4.2 22:40:49 28° SSW 22:44:23 71° W 22:50:43 10° N
Cosmos 1980 Rocket 2.6 22:47:10 10° SSW 22:52:43 60° WNW 22:58:21 10° NNE
Cosmos 972 Rocket 4.4 22:49:35 10° NNW 22:55:45 86° WSW 22:55:49 85° SW
H-2A R/B 4.0 23:00:47 25° NNW 23:00:47 25° NNW 23:02:35 10° NNW
Envisat 4.5 23:17:38 32° W 23:17:38 32° W 23:21:35 10° NW
H-2A R/B 4.5 23:29:30 14° N 23:29:30 14° N 23:30:12 10° N
